TimeCDT,TemperatureF,Dew PointF,Humidity,Sea Level PressureIn,VisibilityMPH,Wind Direction,Wind SpeedMPH,Gust SpeedMPH,PrecipitationIn,Events,Conditions,WindDirDegrees,DateUTC
12:53 AM,53.1,42.1,66,29.71,10.0,SSE,11.5,-,N/A,,Clear,160,2012-10-16 05:53:00
1:53 AM,54.0,43.0,66,29.69,10.0,South,11.5,-,N/A,,Clear,170,2012-10-16 06:53:00
2:53 AM,52.0,43.0,71,29.65,10.0,SSE,10.4,-,N/A,,Clear,160,2012-10-16 07:53:00
3:53 AM,52.0,44.1,74,29.62,10.0,SSE,11.5,-,N/A,,Clear,150,2012-10-16 08:53:00
5:53 AM,51.1,44.1,77,29.57,10.0,SE,6.9,-,N/A,,Clear,130,2012-10-16 10:53:00
7:53 AM,50.0,44.1,80,29.56,10.0,Calm,Calm,-,N/A,,Scattered Clouds,0,2012-10-16 12:53:00
8:53 AM,52.0,45.0,77,29.55,10.0,SSE,3.5,-,N/A,,Partly Cloudy,150,2012-10-16 13:53:00
9:53 AM,53.1,45.0,74,29.54,10.0,Calm,Calm,-,N/A,,Clear,0,2012-10-16 14:53:00
10:53 AM,60.1,46.9,62,29.53,10.0,WSW,4.6,-,N/A,,Clear,240,2012-10-16 15:53:00
11:53 AM,66.9,46.9,49,29.50,10.0,NNW,9.2,-,N/A,,Clear,330,2012-10-16 16:53:00
12:53 PM,71.1,46.0,41,29.48,10.0,North,5.8,-,N/A,,Clear,350,2012-10-16 17:53:00
1:53 PM,75.0,44.1,33,29.44,10.0,West,10.4,16.1,N/A,,Clear,280,2012-10-16 18:53:00
2:53 PM,78.1,43.0,29,29.42,10.0,WNW,11.5,18.4,N/A,,Clear,290,2012-10-16 19:53:00
3:53 PM,79.0,43.0,28,29.40,10.0,NW,11.5,-,N/A,,Clear,310,2012-10-16 20:53:00
4:53 PM,77.0,41.0,28,29.41,10.0,West,6.9,-,N/A,,Clear,280,2012-10-16 21:53:00
5:53 PM,72.0,41.0,33,29.40,10.0,West,9.2,-,N/A,,Clear,260,2012-10-16 22:53:00
6:53 PM,63.0,43.0,48,29.42,10.0,WSW,10.4,-,N/A,,Clear,250,2012-10-16 23:53:00
7:53 PM,57.0,42.1,57,29.43,10.0,WSW,8.1,-,N/A,,Clear,250,2012-10-17 00:53:00
8:53 PM,55.0,42.1,62,29.42,10.0,SW,4.6,-,N/A,,Clear,230,2012-10-17 01:53:00
9:53 PM,51.1,41.0,68,29.42,10.0,SW,6.9,-,N/A,,Clear,220,2012-10-17 02:53:00
10:53 PM,51.1,42.1,71,29.40,10.0,Calm,Calm,-,N/A,,Clear,0,2012-10-17 03:53:00
11:53 PM,53.1,43.0,69,29.37,10.0,SSE,5.8,-,N/A,,Clear,160,2012-10-17 04:53:00